Retour au catalogue

COSMOS 839

ActifMilitaireUNKNOWN
NORAD 9011·PAYLOAD·🇷🇺 Russia

Lancé Jul 8, 1976 depuis Plesetsk Cosmodrome

Loading…

Prochains Passages (prochaines 24 heures)

TLE

FraisSource: Space-Track

Époque: Sep 14, 2026, 00:30 UTC

1 09011U 76067A   26257.02093613 -.00000051  00000-0  16384-4 0  9996
2 09011  65.8524  92.0285 0710116 253.6203  98.5624 12.32897348271085

Suivez COSMOS 839 en temps réel avec AllMySat

Download on the App Store